Cloud_Cover
0 0 0 0 0 0 0 0 6 0 78 86 100 1 0 0 0 0 0 0 0 3 54 100 100 100 76 54 35 99 91 100 93 91 55 13 18 22 10 13 5 5 5
0 0 0 0 0 0 0 42 2 19 95 81 98 42 0 0 0 0 0 0 0 0 2 52 22 33 4 6 5 50 100 100 89 61 67 66 80 44 39 66 41 5 5
0 0 0 0 0 0 0 73 88 11 0 72 33 26 0 42 0 0 0 0 0 0 0 0 0 4 5 3 4 79 98 76 100 94 99 70 100 100 100 45 100 61 11
0 0 0 0 0 0 0 0 0 0 0 73 30 91 0 16 68 0 0 0 0 0 0 0 0 0 0 3 13 7 82 100 84 100 100 100 100 100 100 100 100 100 82
0 0 0 0 0 0 0 0 0 0 0 10 49 8 0 6 100 0 0 0 0 0 0 0 0 0 0 0 7 94 6 3 42 100 100 100 100 100 100 100 100 100 100
0 0 0 0 0 0 0 0 0 0 0 0 4 3 0 36 0 1 0 0 0 0 0 0 0 0 3 4 5 5 4 0 3 61 23 100 100 100 100 100 100 100 100
0 0 0 0 0 0 0 0 0 0 0 0 5 5 5 0 0 1 0 0 0 0 0 0 0 0 0 1 5 35 50 5 5 5 1 26 35 100 100 100 100 100 100
0 0 0 0 0 0 0 0 0 0 0 0 0 5 27 7 5 5 5 5 5 4 0 0 0 0 0 0 0 0 4 10 89 19 5 8 1 50 100 100 100 100 100
0 0 0 0 0 0 0 0 0 0 0 0 0 20 59 50 20 5 5 8 5 5 5 5 2 0 0 0 0 0 0 5 83 95 91 100 88 4 18 100 100 100 100
0 0 0 0 0 0 0 0 0 0 0 0 0 4 19 61 82 67 27 87 45 10 92 100 100 44 1 0 0 0 0 3 6 82 100 100 40 12 100 46 94 100 100
0 0 0 0 0 0 0 0 0 0 0 0 0 0 0 0 5 11 13 14 8 27 64 90 98 100 7 0 0 0 0 0 1 5 22 100 100 86 88 100 87 70 100
0 0 0 0 0 0 0 0 0 0 0 0 0 0 0 0 6 55 37 74 76 100 100 86 77 59 17 0 0 0 0 0 0 0 4 6 75 100 100 100 100 100 100
0 0 0 0 0 0 0 0 0 0 0 0 0 0 0 0 0 29 74 40 95 100 100 98 53 5 7 0 0 0 0 0 0 0 3 0 2 16 92 94 100 100 100
0 0 0 0 0 0 0 0 0 0 0 0 0 0 0 0 2 19 71 70 19 27 93 5 4 4 5 2 5 0 0 0 0 0 2 2 3 0 0 57 100 100 100
0 0 0 0 0 0 0 0 0 0 0 0 0 0 0 0 0 3 6 6 50 49 33 6 4 5 5 3 0 0 4 5 3 1 2 5 5 0 0 1 5 14 99
0 0 0 0 0 0 0 0 0 0 0 0 0 0 0 2 5 14 11 10 19 0 44 97 5 5 5 4 4 1 2 4 5 5 5 5 3 0 0 0 0 5 77
0 0 0 0 0 0 0 0 0 0 0 0 0 0 5 5 5 5 5 0 5 9 63 71 5 90 49 5 9 45 5 5 5 5 5 5 5 4 2 2 1 4 3
0 0 0 0 0 0 0 0 0 0 0 0 0 0 1 4 8 71 63 11 11 2 6 5 88 100 100 97 99 95 5 7 54 12 5 5 5 5 7 100 100 100 98
2 0 0 0 0 0 0 0 0 0 0 0 0 0 5 42 63 68 46 100 51 4 100 100 100 100 77 99 82 46 90 9 16 34 25 42 9 5 54 99 100 100 100
23 3 0 0 0 0 0 0 0 0 0 0 0 6 56 74 38 86 100 53 11 94 83 46 99 93 74 63 74 90 100 83 5 7 71 55 51 93 100 100 100 100 90
1 0 0 0 0 0 0 0 0 0 0 0 5 96 83 10 5 5 70 27 20 100 100 100 92 100 98 100 100 100 88 33 10 52 96 99 79 100 100 99 100 100 100
0 0 0 0 0 0 0 0 0 0 0 5 5 14 8 5 5 5 100 21 95 100 100 99 10 100 100 99 100 100 92 92 13 50 80 27 82 60 26 5 40 100 100
0 0 0 0 0 0 0 0 0 0 0 4 5 3 5 86 35 73 98 65 38 8 73 5 16 99 100 100 100 100 71 6 33 30 5 5 4 0 0 0 0 0 0
5 0 0 0 0 0 0 0 0 0 10 44 5 3 16 70 70 81 97 5 51 100 66 26 5 69 100 100 100 100 43 12 10 2 28 2 0 0 0 0 0 0 0
6 0 0 0 0 0 0 0 0 0 60 12 32 5 79 100 99 100 98 30 71 95 91 52 8 100 100 100 100 93 5 6 2 14 2 0 0 0 0 0 0 0 0
14 93 17 4 1 0 30 0 16 93 87 6 42 59 99 100 100 99 100 86 60 51 52 33 78 100 100 100 100 54 5 5 0 0 0 0 0 0 0 0 0 0 0